Retour au catalogue

RESOURCESAT 2

ActifScienceSSO
NORAD 37387·PAYLOAD·🇮🇳 India

Lancé Apr 20, 2011 depuis Satish Dhawan Space Centre

Loading…

Prochains Passages (prochaines 24 heures)

TLE

FraisSource: Space-Track

Époque: Sep 14, 2026, 14:46 UTC

1 37387U 11015A   26257.61585446  .00000046  00000-0  41078-4 0  9991
2 37387  98.7561 324.4021 0011191   5.6651 354.4651 14.21609581798883

Suivez RESOURCESAT 2 en temps réel avec AllMySat

Download on the App Store